Flag for Kazakhstan Weather past 2 weeks in Astana, Kazakhstan

Now
43 °F

Broken clouds.


Feels Like: 41 °F
Forecast: 27 / 38 °F
Wind: 3 mph from West

Location: Astana

Current Time: Oct 20, 2014 at 10:35:27 AM

Latest Report: Oct 20, 2014 at 9:00 AM


Visibility: N/A

Pressure: 29.65 "Hg

Humidity: 81%

Dew point: 37 °F

Location of AstanaLocation

Historic Weather in Astana — Graph

°F

Astana temperature yesterday

Maximum temperature yesterday: 68 °F (at 3:30 PM)
Minimum temperature yesterday: 43 °F (at 1:30 AM)
Average temperature yesterday: 53 °F

Past Weeks' High & Low Weather Summary

 TemperatureHumidityPressure
High68 °F (Oct 19, 3:30 PM)100% (Oct 7, 1:30 AM)30.60 "Hg (Oct 7, 1:30 AM)
Low19 °F (Oct 9, 6:00 AM)19% (Oct 17, 4:00 PM)29.53 "Hg (Oct 19, 2:30 PM)
Average43 °F71%30.04 "Hg
* Reported Oct 5 9:30 AM — Oct 20 9:00 AM, Astana, Weather by CustomWeather, © 2014

Note: Actual official high and low records may vary slightly from our data, if they occured in-between our weather recording intervals... More about our weather records

Advertising

Astana weather history for previous 24 hours

 ConditionsComfort  
Time TempWeatherWind HumidityBarometerVisibility
9:00 AM
Oct 20
43 °FBroken clouds.3 mph81%29.65 "HgN/A
8:30 AM41 °FOvercast.6 mph87%29.65 "HgN/A
8:00 AM41 °FOvercast.8 mph87%29.65 "HgN/A
7:30 AM43 °FPassing clouds.6 mph81%29.65 "HgN/A
7:00 AM43 °FPassing clouds.8 mph87%29.65 "HgN/A
6:30 AM45 °FLow clouds.13 mph81%29.65 "HgN/A
6:00 AM46 °FLow clouds.8 mph93%29.62 "Hg5 mi
5:30 AM46 °FLow clouds.6 mph93%29.62 "Hg4 mi
5:00 AM46 °FFog.8 mph93%29.62 "Hg1 mi
4:30 AM46 °FFog.13 mph93%29.59 "Hg1 mi
4:00 AM46 °FPassing clouds.8 mph87%29.59 "HgN/A
3:30 AM48 °FPassing clouds.8 mph87%29.59 "HgN/A
3:00 AM52 °FMostly cloudy.10 mph88%29.56 "HgN/A
2:30 AM54 °FMostly cloudy.8 mph88%29.56 "HgN/A
2:00 AM54 °FMostly cloudy.8 mph94%29.56 "HgN/A
1:30 AM54 °FMostly cloudy.8 mph94%29.56 "HgN/A
1:00 AM54 °FMostly cloudy.10 mph94%29.56 "HgN/A
12:30 AM54 °FMostly cloudy.8 mph94%29.56 "HgN/A
12:00 AM54 °FMostly cloudy.8 mph94%29.56 "HgN/A
11:30 PM
Oct 19
52 °FMostly cloudy.6 mph94%29.56 "HgN/A
11:00 PM52 °FMostly cloudy.6 mph94%29.56 "HgN/A
10:30 PM54 °FMostly cloudy.8 mph82%29.56 "HgN/A
10:00 PM54 °FMostly cloudy.10 mph88%29.56 "HgN/A
9:30 PM55 °FClear.10 mph77%29.56 "Hg10 mi
9:00 PM55 °FClear.13 mph77%29.56 "Hg10 mi
8:30 PM57 °FClear.10 mph67%29.56 "Hg10 mi
8:00 PM57 °FClear.10 mph67%29.56 "Hg10 mi
7:30 PM59 °FPartly cloudy.13 mph63%29.56 "HgN/A
7:00 PM59 °FPassing clouds.10 mph63%29.56 "HgN/A
6:30 PM59 °FClear.13 mph59%29.53 "Hg10 mi
6:00 PM61 °FSunny.15 mph55%29.53 "Hg10 mi
5:30 PM64 °FSunny.13 mph46%29.53 "Hg10 mi
5:00 PM66 °FSunny.15 mph43%29.53 "Hg10 mi
4:30 PM68 °FSunny.17 mph40%29.53 "Hg10 mi
4:00 PM66 °FSunny.15 mph43%29.53 "Hg10 mi
3:30 PM68 °FSunny.17 mph35%29.53 "Hg10 mi
3:00 PM66 °FSunny.15 mph32%29.53 "Hg10 mi
2:30 PM66 °FSunny.17 mph28%29.53 "Hg10 mi
2:00 PM64 °FSunny.15 mph30%29.56 "Hg10 mi
1:30 PM63 °FSunny.15 mph34%29.56 "Hg10 mi
1:00 PM61 °FSunny.20 mph34%29.56 "Hg10 mi
12:30 PM59 °FSunny.15 mph36%29.56 "Hg10 mi
12:00 PM61 °FSunny.20 mph31%29.56 "Hg10 mi
11:30 AM59 °FSunny.22 mph34%29.59 "Hg10 mi
11:00 AM55 °FSunny.20 mph38%29.59 "Hg10 mi
10:30 AM55 °FSunny.20 mph41%29.59 "Hg10 mi
10:00 AM54 °FSunny.17 mph44%29.62 "Hg10 mi
Weather by CustomWeather, © 2014

See weather overviewHow to use our weather pages